DW9580 Weather Reports


time (UTC)temp
C
wind
direction
speed
KPH
gust
KPH
rain 1hr
cm
rain 24hr
cm
rain mn
cm
humidity
%
barometer
mb
20260507200705 12 62 0.0 0.0 0.00 0.23 0.23 74 1014.7
20260507200206 12 62 0.0 0.0 0.00 0.23 0.23 73 1014.7
20260507195205 12 62 0.0 0.0 0.00 0.23 0.23 72 1014.6
20260507194705 12 62 0.0 0.0 0.00 0.23 0.23 72 1014.6
20260507194205 12 62 0.0 0.0 0.00 0.23 0.23 71 1014.6
20260507193705 12 62 0.0 0.0 0.00 0.23 0.23 71 1014.6
20260507193205 12 62 0.0 0.0 0.00 0.23 0.23 70 1014.5
20260507192705 12 62 0.0 0.0 0.00 0.23 0.23 70 1014.5
20260507192205 12 62 0.0 0.0 0.00 0.23 0.23 70 1014.5
20260507191705 12 62 0.0 0.0 0.00 0.23 0.23 69 1014.5
20260507191205 12 62 0.0 0.0 0.00 0.23 0.23 68 1014.5
20260507190706 12 62 0.0 0.0 0.03 0.23 0.23 68 1014.5
20260507190231 13 62 0.0 0.0 0.03 0.23 0.23 67 1014.5
20260507185705 13 62 0.0 0.0 0.03 0.23 0.23 67 1014.5
20260507184705 13 62 0.0 0.0 0.03 0.23 0.23 66 1014.4
20260507183205 13 62 0.0 0.0 0.03 0.23 0.23 64 1014.4
20260507182208 13 62 0.0 0.0 0.03 0.23 0.23 63 1014.4
20260507181704 13 62 0.0 0.0 0.03 0.23 0.23 62 1014.4
20260507181205 13 62 0.0 0.0 0.00 0.23 0.20 61 1014.4
20260507180705 13 62 0.0 0.0 0.00 0.23 0.20 62 1014.3
20260507180205 13 62 0.0 0.0 0.00 0.23 0.20 62 1014.3
20260507175705 13 62 0.0 0.0 0.00 0.23 0.20 61 1014.3
20260507175205 13 62 0.0 0.0 0.00 0.23 0.20 61 1014.3
20260507174705 13 62 0.0 0.0 0.00 0.23 0.20 61 1014.2
20260507174205 13 62 0.0 0.0 0.00 0.23 0.20 60 1014.2
20260507173708 13 62 0.0 0.0 0.00 0.23 0.20 62 1014.2
20260507173205 13 62 0.0 0.0 0.00 0.23 0.20 62 1014.1
20260507172205 13 62 0.0 0.0 0.00 0.23 0.20 62 1014.1
20260507171706 13 62 0.0 0.0 0.03 0.23 0.20 61 1014.0
20260507171205 13 62 0.0 0.0 0.03 0.23 0.20 61 1014.0
20260507170705 13 62 0.0 0.0 0.03 0.23 0.20 60 1014.0
20260507170205 13 62 0.0 0.0 0.03 0.23 0.20 58 1014.0
20260507165705 13 62 0.0 0.0 0.03 0.23 0.20 58 1014.0
20260507165205 13 63 0.0 0.0 0.03 0.23 0.20 59 1014.0
20260507164705 13 63 0.0 0.0 0.03 0.23 0.20 60 1014.0
20260507164208 13 63 0.0 0.0 0.03 0.23 0.20 59 1014.0
20260507163711 13 63 0.0 0.0 0.03 0.23 0.20 59 1014.0
20260507163205 14 63 0.0 0.0 0.03 0.23 0.20 59 1014.0
20260507162705 14 63 0.0 0.0 0.03 0.23 0.20 59 1014.0
20260507161708 14 63 0.0 0.0 0.00 0.23 0.18 60 1014.0
20260507161205 14 63 0.0 0.0 0.00 0.23 0.18 60 1014.0
20260507160705 14 63 0.0 0.0 0.00 0.23 0.18 61 1014.0
20260507155205 14 64 0.0 0.0 0.00 0.23 0.18 60 1013.9
20260507154705 14 28 0.0 0.0 0.00 0.23 0.18 60 1013.9
20260507154206 14 14 0.0 0.0 0.00 0.23 0.18 59 1013.9
20260507153705 14 14 0.0 0.0 0.00 0.23 0.18 58 1014.0
20260507153205 14 14 0.0 0.0 0.03 0.23 0.18 58 1014.0
20260507152705 14 14 0.0 0.0 0.03 0.23 0.18 58 1014.0
20260507152205 14 14 0.0 0.0 0.03 0.23 0.18 59 1013.9
20260507151705 14 14 0.0 0.0 0.03 0.23 0.18 59 1013.8
20260507151207 14 14 0.0 0.0 0.03 0.23 0.18 60 1013.9
20260507150205 14 14 0.0 0.0 0.03 0.23 0.18 59 1013.9
20260507145705 14 14 0.0 0.0 0.03 0.23 0.18 59 1013.8
20260507145205 14 14 0.0 0.0 0.03 0.23 0.18 59 1013.8
20260507144705 14 14 0.0 0.0 0.03 0.23 0.18 57 1013.9
20260507144205 14 14 0.0 0.0 0.03 0.23 0.18 57 1013.8
20260507143705 14 14 0.0 0.0 0.05 0.23 0.18 56 1013.8
20260507143205 14 14 0.0 0.0 0.03 0.23 0.15 56 1013.8
20260507142705 15 14 0.0 0.0 0.03 0.23 0.15 58 1013.8
20260507142205 14 14 0.0 0.0 0.03 0.23 0.15 57 1013.8
20260507141709 15 14 0.0 0.0 0.03 0.23 0.15 58 1013.9
20260507141205 14 14 0.0 4.8 0.03 0.23 0.15 58 1013.8
20260507140705 14 14 0.0 8.0 0.03 0.23 0.15 57 1013.8
20260507135706 15 329 3.2 8.0 0.03 0.23 0.15 57 1013.9
20260507135206 15 321 3.2 9.7 0.03 0.23 0.15 57 1014.0
20260507134705 15 320 3.2 11.3 0.03 0.23 0.15 56 1013.9
20260507134206 16 319 3.2 11.3 0.03 0.23 0.15 55 1013.9
20260507133705 16 313 1.6 11.3 0.00 0.20 0.15 53 1013.9
20260507133206 15 313 1.6 8.0 0.00 0.20 0.15 53 1014.0
20260507132705 15 306 3.2 8.0 0.00 0.20 0.15 54 1014.0
20260507132205 15 306 3.2 8.0 0.00 0.20 0.15 56 1014.0
20260507131705 15 304 1.6 8.0 0.03 0.20 0.15 56 1014.1
20260507131205 15 306 1.6 11.3 0.03 0.20 0.15 58 1014.1
20260507130705 15 306 3.2 11.3 0.03 0.20 0.15 59 1014.1
20260507125705 15 306 3.2 11.3 0.03 0.20 0.15 55 1014.0
20260507125205 15 299 1.6 8.0 0.03 0.20 0.15 59 1014.0
20260507124725 15 299 1.6 14.5 0.03 0.20 0.15 58 1014.0
20260507124205 15 299 1.6 14.5 0.03 0.20 0.15 59 1014.1
20260507123709 15 299 1.6 14.5 0.03 0.23 0.15 61 1014.0
20260507123205 15 326 1.6 6.4 0.03 0.23 0.15 61 1013.9
20260507122706 15 326 1.6 6.4 0.03 0.23 0.15 62 1013.9
20260507122206 14 326 1.6 8.0 0.03 0.23 0.15 66 1013.9
20260507121705 13 326 1.6 8.0 0.03 0.20 0.13 67 1014.0
20260507121206 13 326 1.6 8.0 0.03 0.20 0.13 66 1014.0
20260507120705 13 326 3.2 8.0 0.03 0.20 0.13 68 1014.0
20260507115705 13 326 3.2 12.9 0.03 0.20 0.13 68 1014.1
20260507114705 13 326 4.8 9.7 0.03 0.20 0.13 67 1014.1
20260507114206 13 327 3.2 8.0 0.03 0.20 0.13 66 1014.0
20260507113705 13 325 0.0 8.0 0.03 0.20 0.13 65 1014.0
20260507113205 13 325 0.0 0.0 0.03 0.20 0.13 64 1014.1
20260507112706 13 325 0.0 0.0 0.03 0.20 0.13 66 1014.0
20260507112205 12 325 0.0 0.0 0.00 0.18 0.10 74 1014.1
20260507111205 12 325 0.0 0.0 0.00 0.18 0.10 74 1014.1
20260507110705 12 325 0.0 0.0 0.00 0.18 0.10 73 1014.1
20260507110205 12 325 0.0 0.0 0.00 0.18 0.10 72 1014.1
20260507105706 12 325 0.0 0.0 0.00 0.18 0.10 72 1014.1
20260507105205 12 325 0.0 0.0 0.00 0.18 0.10 72 1014.0
20260507104705 12 313 0.0 0.0 0.00 0.18 0.10 72 1014.1
20260507104206 12 313 0.0 0.0 0.00 0.18 0.10 72 1014.1
20260507103205 12 313 0.0 0.0 0.03 0.20 0.10 77 1014.2
20260507102705 11 313 0.0 0.0 0.03 0.20 0.10 76 1014.3
20260507102206 12 313 0.0 0.0 0.03 0.20 0.10 78 1014.2
20260507101706 11 311 0.0 0.0 0.03 0.20 0.10 78 1014.1
20260507101205 11 311 0.0 0.0 0.03 0.20 0.10 80 1014.1
20260507100705 11 311 0.0 0.0 0.03 0.20 0.10 81 1014.1
20260507100205 11 311 0.0 0.0 0.03 0.20 0.10 81 1014.0
20260507095705 11 311 0.0 0.0 0.03 0.20 0.10 82 1014.0
20260507095206 11 311 0.0 0.0 0.03 0.20 0.10 82 1014.0
20260507094705 11 311 0.0 0.0 0.03 0.20 0.10 82 1014.0
20260507094205 11 312 0.0 0.0 0.00 0.18 0.08 82 1013.9
20260507093704 11 312 0.0 0.0 0.03 0.18 0.08 82 1013.9
20260507093205 11 312 0.0 0.0 0.03 0.18 0.08 83 1013.9
20260507092705 11 312 0.0 0.0 0.03 0.18 0.08 83 1013.8
20260507091705 11 312 0.0 0.0 0.03 0.18 0.08 83 1013.8
20260507091206 11 312 0.0 0.0 0.03 0.18 0.08 83 1013.7
20260507090721 10 312 0.0 0.0 0.03 0.18 0.08 83 1013.7
20260507090220 10 312 0.0 0.0 0.03 0.18 0.08 83 1013.7
20260507085705 10 312 0.0 0.0 0.03 0.18 0.08 84 1013.6
20260507085205 10 312 0.0 0.0 0.03 0.18 0.08 83 1013.6
20260507084722 10 312 0.0 0.0 0.03 0.18 0.08 84 1013.6
20260507084205 10 312 0.0 0.0 0.00 0.15 0.05 84 1013.5
20260507083705 10 312 0.0 0.0 0.00 0.15 0.05 83 1013.5
20260507083205 10 312 0.0 0.0 0.00 0.15 0.05 83 1013.5
20260507082205 10 324 0.0 0.0 0.00 0.15 0.05 82 1013.5
20260507080705 9 325 0.0 0.0 0.00 0.15 0.05 81 1013.4
20260507080205 9 324 0.0 0.0 0.00 0.15 0.05 81 1013.4
20260507075705 9 325 0.0 0.0 0.00 0.15 0.05 80 1013.4
20260507075205 9 331 0.0 0.0 0.00 0.18 0.05 79 1013.3
20260507074705 9 331 0.0 0.0 0.00 0.18 0.05 79 1013.2
20260507074205 9 331 0.0 0.0 0.00 0.18 0.05 79 1013.2
20260507073705 9 331 0.0 0.0 0.00 0.18 0.05 79 1013.2
20260507073205 9 332 0.0 0.0 0.00 0.18 0.05 78 1013.1
20260507072706 8 332 0.0 6.4 0.00 0.18 0.05 78 1013.1
20260507072205 8 332 0.0 6.4 0.00 0.18 0.05 78 1013.1
20260507071705 8 332 0.0 6.4 0.00 0.18 0.05 78 1013.0
20260507070205 8 332 0.0 4.8 0.00 0.18 0.05 78 1013.0
20260507065705 8 332 0.0 4.8 0.00 0.18 0.05 78 1013.0
20260507065205 8 332 1.6 4.8 0.03 0.18 0.05 78 1012.9
20260507064705 8 332 1.6 4.8 0.03 0.18 0.05 78 1012.9
20260507063707 8 332 0.0 6.4 0.03 0.18 0.05 78 1012.9
20260507063205 8 332 0.0 6.4 0.03 0.18 0.05 78 1012.8
20260507062705 8 332 1.6 6.4 0.03 0.18 0.05 78 1012.7
20260507062205 8 332 1.6 3.2 0.03 0.18 0.05 78 1012.8
20260507061705 8 332 0.0 3.2 0.03 0.18 0.05 78 1012.7
20260507061205 8 332 0.0 3.2 0.03 0.18 0.05 78 1012.7
20260507060705 8 332 0.0 4.8 0.03 0.20 0.05 78 1012.6
20260507060206 8 332 0.0 4.8 0.03 0.20 0.05 78 1012.6
20260507055705 8 332 0.0 4.8 0.03 0.20 0.05 78 1012.6
20260507055205 8 332 0.0 4.8 0.00 0.18 0.05 78 1012.5
20260507054705 8 332 0.0 4.8 0.00 0.18 0.05 78 1012.5
20260507054205 7 332 0.0 4.8 0.00 0.18 0.05 78 1012.4
20260507053705 8 332 0.0 4.8 0.00 0.18 0.05 78 1012.4
20260507053205 7 336 0.0 4.8 0.00 0.18 0.05 78 1012.4
20260507052706 7 336 0.0 4.8 0.00 0.18 0.05 78 1012.4
20260507052207 7 336 0.0 4.8 0.00 0.18 0.05 78 1012.3
20260507051707 7 336 0.0 4.8 0.00 0.18 0.05 78 1012.3
20260507051207 7 336 0.0 3.2 0.00 0.18 0.05 78 1012.3
20260507050705 7 336 0.0 3.2 0.00 0.18 0.05 78 1012.2
20260507045705 7 336 0.0 3.2 0.00 0.18 0.05 78 1012.1
20260507045205 7 336 0.0 3.2 0.00 0.18 0.05 78 1012.0
20260507044205 7 336 0.0 0.0 0.03 0.18 0.05 78 1011.9
20260507043706 7 336 0.0 0.0 0.03 0.18 0.05 78 1011.8
20260507043207 7 336 0.0 0.0 0.03 0.18 0.05 78 1011.7
20260507042205 7 336 0.0 0.0 0.03 0.18 0.05 78 1011.6
20260507041705 7 336 0.0 0.0 0.03 0.18 0.05 78 1011.6
20260507041205 7 336 0.0 0.0 0.03 0.18 0.05 78 1011.6
20260507040205 7 336 0.0 0.0 0.03 0.20 0.05 78 1011.5
20260507035704 7 336 0.0 0.0 0.03 0.20 0.05 78 1011.4
20260507035205 7 336 0.0 0.0 0.03 0.20 0.05 78 1011.4
20260507034705 7 336 0.0 0.0 0.03 0.20 0.05 78 1011.4
20260507034205 7 336 0.0 0.0 0.00 0.18 0.03 78 1011.4
20260507033705 7 336 0.0 0.0 0.00 0.18 0.03 78 1011.3
20260507033205 7 336 0.0 0.0 0.00 0.18 0.03 78 1011.3
20260507032705 7 336 0.0 0.0 0.00 0.18 0.03 78 1011.3
20260507032206 7 336 0.0 0.0 0.00 0.18 0.03 78 1011.3
20260507031205 7 336 0.0 3.2 0.00 0.18 0.03 78 1011.3
20260507030205 7 336 0.0 3.2 0.00 0.18 0.03 78 1011.3
20260507025705 7 336 0.0 3.2 0.00 0.18 0.03 78 1011.3
20260507025206 7 336 0.0 0.0 0.00 0.18 0.03 78 1011.1
20260507024705 7 336 0.0 0.0 0.00 0.20 0.03 78 1011.1
20260507024205 7 336 0.0 0.0 0.00 0.20 0.03 78 1011.1
20260507023705 7 336 0.0 1.6 0.00 0.20 0.03 78 1011.0
20260507022706 7 336 0.0 1.6 0.00 0.20 0.03 78 1011.0
20260507022206 7 336 0.0 0.0 0.00 0.20 0.03 78 1011.0
20260507021705 7 336 0.0 1.6 0.00 0.20 0.03 78 1011.0
20260507021206 7 336 0.0 1.6 0.00 0.20 0.03 78 1011.0
20260507020706 7 336 0.0 1.6 0.00 0.20 0.03 78 1010.9
20260507020205 7 336 0.0 0.0 0.00 0.20 0.03 78 1010.9
20260507015706 7 336 0.0 1.6 0.00 0.20 0.03 78 1010.9
20260507015206 7 336 0.0 1.6 0.00 0.20 0.03 78 1010.8
20260507014705 7 336 0.0 1.6 0.00 0.20 0.03 78 1010.9
20260507014209 7 336 0.0 0.0 0.00 0.20 0.03 78 1010.9
20260507013705 7 336 0.0 1.6 0.00 0.20 0.03 78 1010.9
20260507013205 7 336 0.0 3.2 0.00 0.20 0.03 78 1010.9
20260507012706 7 336 0.0 3.2 0.00 0.20 0.03 78 1010.8
20260507012206 7 336 0.0 3.2 0.00 0.20 0.03 78 1010.8
20260507011706 7 336 0.0 3.2 0.03 0.20 0.03 78 1010.8
20260507011205 7 336 0.0 3.2 0.03 0.23 0.03 78 1010.7
20260507010708 7 336 0.0 3.2 0.03 0.23 0.03 78 1010.7
20260507005205 7 336 0.0 3.2 0.03 0.23 0.03 78 1010.6
20260507004705 7 336 0.0 3.2 0.03 0.23 0.03 78 1010.6
20260507003705 7 336 0.0 3.2 0.03 0.23 0.03 78 1010.6
20260507003205 7 336 0.0 3.2 0.03 0.23 0.03 78 1010.6
20260507002705 7 336 0.0 3.2 0.03 0.23 0.03 78 1010.6
20260507002206 7 336 0.0 1.6 0.00 0.20 0.00 78 1010.5
20260507001705 7 336 0.0 1.6 0.00 0.20 0.00 78 1010.5
20260507001205 7 336 0.0 3.2 0.00 0.23 0.00 78 1010.5
20260507000705 7 336 0.0 4.8 0.00 0.23 0.00 78 1010.5
20260507000234 7 336 1.6 4.8 0.00 0.23 0.00 78 1010.5
20260506235705 7 336 1.6 4.8 0.00 0.23 0.00 78 1010.5
20260506234705 7 336 0.0 3.2 0.00 0.23 0.00 78 1010.6
20260506234205 7 336 0.0 4.8 0.00 0.23 0.00 78 1010.6
20260506233705 7 336 1.6 4.8 0.00 0.23 0.00 78 1010.5
20260506233205 7 336 1.6 4.8 0.00 0.23 0.00 78 1010.5
20260506232706 7 336 1.6 4.8 0.00 0.23 0.00 78 1010.4
20260506231705 7 336 1.6 6.4 0.00 0.23 0.00 78 1010.4
20260506231205 7 336 1.6 6.4 0.00 0.23 0.00 78 1010.4
20260506230705 7 336 0.0 1.6 0.00 0.23 0.00 78 1010.3
20260506230234 7 336 0.0 8.0 0.00 0.23 0.00 78 1010.3
20260506225705 7 336 1.6 8.0 0.00 0.23 0.00 78 1010.3
20260506225204 7 336 3.2 8.0 0.00 0.23 0.00 78 1010.3
20260506224705 7 336 3.2 8.0 0.00 0.23 0.00 78 1010.2
20260506224230 7 336 4.8 8.0 0.00 0.23 0.00 78 1010.2
20260506223705 7 336 3.2 6.4 0.03 0.23 0.00 78 1010.1
20260506223206 7 336 3.2 12.9 0.03 0.23 0.00 78 1010.0
20260506222706 7 336 4.8 12.9 0.03 0.23 0.00 78 1010.0
20260506221706 7 336 3.2 9.7 0.03 0.23 0.00 78 1009.9
20260506220209 7 333 1.6 8.0 0.03 0.23 0.23 78 1009.7
20260506215705 7 333 3.2 8.0 0.03 0.25 0.23 78 1009.6
20260506215205 7 333 3.2 9.7 0.03 0.25 0.23 78 1009.5
20260506214705 8 333 3.2 9.7 0.03 0.25 0.23 78 1009.5
20260506214206 8 333 3.2 9.7 0.03 0.25 0.23 78 1009.5
20260506213705 8 333 3.2 9.7 0.00 0.23 0.23 78 1009.4
20260506213205 8 333 3.2 8.0 0.00 0.23 0.23 78 1009.3
20260506212707 8 333 3.2 9.7 0.00 0.23 0.23 78 1009.3
20260506212206 8 333 3.2 9.7 0.00 0.23 0.23 78 1009.4
20260506211205 8 333 1.6 6.4 0.00 0.23 0.23 78 1009.3
20260506210206 8 333 1.6 8.0 0.00 0.23 0.23 78 1009.4
20260506205705 8 333 1.6 8.0 0.00 0.23 0.23 78 1009.3
20260506205205 8 333 3.2 6.4 0.00 0.23 0.23 78 1009.3
20260506204707 8 333 1.6 8.0 0.00 0.25 0.23 78 1009.3
20260506204205 8 333 1.6 8.0 0.00 0.25 0.23 78 1009.3
20260506203706 8 333 3.2 8.0 0.00 0.25 0.23 78 1009.3
20260506203205 7 333 3.2 8.0 0.00 0.25 0.23 78 1009.3
20260506202706 7 333 3.2 6.4 0.00 0.25 0.23 78 1009.3
20260506202205 7 333 1.6 6.4 0.00 0.25 0.23 78 1009.3
20260506201705 7 333 1.6 6.4 0.00 0.25 0.23 78 1009.3
20260506201205 7 333 1.6 6.4 0.00 0.25 0.23 78 1009.2